Regional Weather Roundup
Issued by NWS Albany, NY

Home | Current Version | Previous Version | Graphics & Text | Print | Product List | Glossary On
Versions: 1 2 3 4 5 6 7 8 9 10 11 12 13 14 15 16 17 18 19 20 21 22 23 24 25 26 27 28 29 30 31 32 33 34 35 36 37 38 39 40 41 42 43 44 45 46 47 48 49 50
000
ASUS41 KALY 162110
RWRALY

NEW YORK STATE HOURLY WEATHER ROUNDUP
NATIONAL WEATHER SERVICE ALBANY NY
400 PM EST FRI FEB 16 2018

NOTE: "FAIR" INDICATES FEW OR NO CLOUDS BELOW 12,000 FEET WITH NO
SIGNIFICANT WEATHER AND/OR NO OBSTRUCTIONS TO VISIBILITY.

NYZ032-033-038>043-046>054-057>066-NYZ062>081-082-084-162200-
EAST


CITY           SKY/WX    TMP DP  RH WIND       PRES   REMARKS
ALBANY         PTSUNNY   39  30  70 W21G33    29.78R WCI  29
GLENS FALLS    CLOUDY    40  29  64 N13       29.74R WCI  32
POUGHKEEPSIE   CLOUDY    48  32  53 W18G25    29.75R
NEWBURGH       CLOUDY    46  37  71 NW16G26   29.77R
MONTGOMERY     CLOUDY    46  34  62 NW16G25   29.76R
WHITE PLAINS   LGT RAIN  47  42  83 NW20G29   29.71R
ISLIP          LGT RAIN  50  46  86 NW15G25   29.71R
NEW YORK CITY  LGT RAIN  51  44  77 NW16      29.72R
CENTRAL PARK   CLOUDY    51  45  79 NW10      29.75R
$$

NYZ005>009-017-018-044>046-055-056-162200-
CENTRAL


CITY           SKY/WX    TMP DP  RH WIND       PRES   REMARKS
FULTON         PTSUNNY   33  25  72 W22G32    29.92R WCI  21
SYRACUSE       PTSUNNY   32  27  81 NW21G32   29.91R WCI  20
ROME           CLOUDY    35  30  82 W18G26    29.87R WCI  24
ELMIRA         CLOUDY    37  27  67 W17G24    29.91R WCI  27
BINGHAMTON     CLOUDY    32  26  78 NW16G25   29.84R WCI  21
MONTICELLO     CLOUDY    35  29  78 W14G23    29.79R WCI  26
$$

NYZ026>034-041>043-087-162200-
NORTH


CITY           SKY/WX    TMP DP  RH WIND       PRES   REMARKS
WATERTOWN      FAIR      33  25  72 N13       29.89R WCI  24
FORT DRUM      NOT AVBL
OGDENSBURG     FAIR      28  19  68 NW10G16   29.91R WCI  19
MASSENA        FAIR      29  18  63 W12       29.90R WCI  19
SARANAC LAKE   CLOUDY    24  22  91 VRB7G18   29.75R WCI  16
PLATTSBURGH    PTSUNNY   34  24  67 NW17G23   29.77R WCI  23
$$

NYZ001>004-010>016-019>021-085-162200-
WEST


CITY           SKY/WX    TMP DP  RH WIND       PRES   REMARKS
NIAGARA FALLS  CLOUDY    32  20  61 N12       30.05R WCI  23
BUFFALO        PTSUNNY   33  21  61 NW17      30.03R WCI  22
DUNKIRK        PTSUNNY   31  23  72 W13G22    30.09R WCI  21
JAMESTOWN        N/A    N/A N/A N/A MISG        N/A
WELLSVILLE     CLOUDY    30  24  78 NW17G26   29.92R WCI  18
ROCHESTER      FAIR      33  21  61 NW23G33   30.00R WCI  21
PENN YAN       FAIR      36  20  52 W8G22     29.93R WCI  30
$$

             KEY
       WCI = WIND CHILL INDEX
       VSB = VISIBILITY
       HX  = HEAT INDEX
$$



USA.gov is the U.S. government's official web portal to all federal, state and local government web resources and services.